www.pogodaiklimat.ru

Погода и климат >> Архив погоды >> Великобритания >> Авмор


ПОГОДА на Авморе

  • Прогноз погоды на Авморе
  • Монитор погоды на Авморе

АРХИВ ПОГОДЫ на Авморе

Время (UTC), дата Ветер
(напр.,м/с)
 
Видим.   Явления Облачность Т
(С)
Тd
(С)
f
(%)
Тe
(С)
Тes
(С)
Комфортность P
(гПа)
Po
(гПа)
Тmin
(С)
Tmax
(С)
R
(мм)
R24
(мм)
S
(см)
22 12.06 СВ 3 3100 м в посл. час дождь н/о +7.1 +6.6 97 +4 +4 1017.7 989.8
23 12.06 СВ 4 3000 м в посл. час дождь н/о +6.8 +6.1 95 +3 +3 1016.9 989.1
00 13.06 С 5 9000 м в посл. час дождь н/о +6.5 +5.7 95 +2 +2 1016.3 988.4 1
01 13.06 С 3 14 км дым н/о +6.1 +5.1 93 +3 +3 1015.3 987.4
02 13.06 СВ 5 6000 м дым н/о +5.7 +4.7 93 +1 +1 1014.1 986.2
03 13.06 СВ 3 4000 м слаб. морось с дождем н/о +5.2 +4.5 95 +2 +2 1013.6 985.7
04 13.06 С 3 5000 м в посл. час дождь н/о +5.3 +4.2 93 +2 +2 1012.6 984.7
05 13.06 СВ 4 8000 м в посл. час дождь н/о +5.3 +4.2 93 +1 +1 1012.0 984.1
06 13.06 С 2 7000 м слаб. морось н/о +5.1 +4.0 93 +2 +2 1011.5 983.6 +5.1 1
07 13.06 СВ 3 28 км в посл. час морось н/о +5.4 +3.7 89 +2 +2 1010.4 982.5
08 13.06 СВ 3 7000 м в посл. час дождь н/о +5.7 +4.2 90 +3 +3 1009.6 981.8
09 13.06 СВ 3 5000 м в посл. час дождь н/о +5.9 +4.7 92 +2 +2 1008.8 981.1
10 13.06 СВ 2 10 км в посл. час дождь н/о +6.5 +4.8 89 +4 +4 1007.5 979.9
11 13.06 С 3 35 км н/о +7.3 +4.7 84 +5 +5 1006.6 979.0
12 13.06 СВ 3 23 км н/о +7.3 +4.2 81 +4 +4 1005.8 978.3 0.4
13 13.06 СВ 3 5000 м дым н/о +7.4 +5.2 86 +5 +5 1005.1 977.6
14 13.06 СВ 3 30 км слаб. ливневой дождь н/о +7.3 +5.0 85 +4 +4 1004.3 976.8
15 13.06 С 2 19 км слаб. морось с дождем н/о +7.9 +5.5 85 +6 +6 1003.6 976.2
16 13.06 С 2 19 км дождь н/о +7.8 +5.4 85 +6 +6 1003.0 975.6
17 13.06 СВ 1 15 км слаб. дождь н/о +7.8 +5.7 87 +7 +7 1002.4 975.0
18 13.06 В 1 14 км слаб. дождь н/о +7.9 +6.1 88 +8 +8 1002.1 974.7 +8.1 2
19 13.06 С 1 40 км слаб. дождь н/о +8.1 +6.8 91 +8 +8 1001.9 974.5
20 13.06 Ю 1 21 км слаб. морось с дождем н/о +7.7 +6.8 94 +8 +8 1001.7 974.4
21 13.06 ЮЗ 1 26 км слаб. морось с дождем н/о +7.2 +6.4 95 +7 +7 1001.9 974.5
22 13.06 ЮЗ 1 50 км слаб. дождь н/о +6.9 +6.2 95 +6 +6 1001.8 974.4
23 13.06 ЮЗ 1 45 км слаб. дождь н/о +6.9 +6.0 94 +6 +6 1001.8 974.3
00 14.06 ЮЗ 1 50 км слаб. дождь н/о +6.6 +6.0 96 +6 +6 1001.6 974.2 1
01 14.06 Ю 2 50 км слаб. дождь н/о +6.8 +5.5 91 +5 +5 1001.3 973.8
02 14.06 ЮВ 2 50 км в посл. час дождь н/о +6.4 +5.4 93 +4 +4 1001.0 973.5
03 14.06 ЮЗ 1 50 км н/о +6.7 +4.9 88 +6 +6 1001.1 973.6
04 14.06 С 1 45 км н/о +5.4 +4.8 96 +5 +5 1001.2 973.6
05 14.06 В 1 50 км н/о +5.3 +4.9 97 +5 +5 1001.4 973.8
06 14.06 С 1 45 км н/о +6.5 +6.0 97 +6 +6 1001.7 974.2 +4.7 1
07 14.06 В 1 30 км в посл. час дождь н/о +8.3 +7.0 92 +7 +7 1001.6 974.3
08 14.06 Ю 2 45 км н/о +10.1 +6.4 78 +9 +9 1001.9 974.8
09 14.06 Ю 2 50 км н/о +9.8 +5.8 76 +8 +8 1002.5 975.3
10 14.06 Ю 4 45 км н/о +10.9 +5.1 67 +9 +9 1002.9 975.7
11 14.06 Ю 3 40 км н/о +11.7 +4.2 60 +10 +10 1003.0 976.0
12 14.06 Ю 4 8000 м н/о +13.0 +6.0 62 +11 +11 1003.3 976.4 0.0
13 14.06 ЮЗ 4 45 км в посл. час дождь н/о +12.4 +4.3 58 +11 +11 1003.6 976.6
14 14.06 Ю 5 35 км н/о +13.1 +4.7 57 +11 +11 1003.8 976.9
15 14.06 Ю 4 35 км н/о +13.5 +4.1 53 +12 +12 1004.2 977.3
16 14.06 Ю 3 30 км н/о +15.0 +4.8 50 +14 +14 1004.4 977.6
17 14.06 Ю 4 30 км н/о +14.9 +3.3 46 +14 +14 1004.8 978.0
18 14.06 Ю 3 45 км н/о +13.1 +4.2 55 +12 +12 1005.9 979.0 +15.8 0.0
19 14.06 Ю 3 45 км н/о +13.0 +4.4 56 +12 +12 1006.2 979.2
20 14.06 Ю 3 45 км н/о +12.2 +5.2 62 +11 +11 1006.9 979.8
21 14.06 ЮЗ 1 50 км н/о +11.1 +5.4 68 +11 +11 1007.7 980.5
22 14.06 С 1 50 км н/о +9.4 +6.2 80 +9 +9 1008.7 981.3
23 14.06 СЗ 1 40 км в посл. час дождь н/о +8.2 +6.7 90 +7 +7 1009.1 981.6
00 15.06 С 1 45 км н/о +8.0 +7.1 94 +7 +7 1009.3 981.8 0.0
01 15.06 ЮЗ 1 50 км н/о +9.3 +6.5 83 +9 +9 1009.1 981.7
02 15.06 СВ 1 50 км н/о +8.5 +6.8 89 +8 +8 1009.1 981.6
03 15.06 С 1 50 км н/о +9.5 +6.6 82 +9 +9 1009.0 981.6
04 15.06 СЗ 1 50 км н/о +9.8 +6.5 80 +9 +9 1008.8 981.4
05 15.06 С 1 45 км н/о +10.2 +6.9 80 +10 +10 1008.7 981.4
06 15.06 СЗ 1 45 км н/о +11.1 +7.6 79 +11 +11 1008.5 981.3 +7.6 0.0
07 15.06 В 1 30 км н/о +11.9 +8.4 79 +12 +12 1008.7 981.6
08 15.06 СВ 2 45 км н/о +12.7 +8.6 76 +12 +12 1008.5 981.4
09 15.06 ЮВ 3 50 км н/о +14.4 +8.1 66 +14 +14 1008.2 981.3
10 15.06 В 2 50 км н/о +15.5 +8.1 61 +15 +15 1007.6 980.8
11 15.06 ЮВ 3 35 км н/о +15.6 +7.4 58 +15 +15 1007.9 981.1
12 15.06 Ю 3 45 км н/о +16.6 +8.0 57 +17 +17 1007.9 981.2
13 15.06 Ю 4 22 км н/о +16.2 +8.0 58 +16 +16 1008.0 981.3
14 15.06 Ю 2 40 км н/о +15.7 +6.1 53 +16 +16 1007.8 981.1
15 15.06 Ю 3 45 км н/о +15.6 +5.1 50 +15 +15 1007.8 981.0
16 15.06 ЮВ 2 40 км н/о +15.8 +6.3 53 +16 +16 1007.7 980.9
17 15.06 ЮВ 2 45 км н/о +16.1 +6.8 54 +17 +17 1007.3 980.5
18 15.06 ЮВ 1 30 км н/о +16.3 +7.9 57 +17 +17 1006.8 980.1 +17.2
19 15.06 ЮЗ 2 35 км н/о +15.1 +6.9 58 +15 +15 1006.9 980.1
20 15.06 ЮЗ 1 50 км н/о +14.5 +6.8 60 +15 +15 1006.8 979.9
21 15.06 ЮЗ 2 50 км н/о +13.6 +7.7 67 +13 +13 1007.5 980.5
22 15.06 ЮЗ 1 45 км н/о +12.7 +7.5 71 +13 +13 1007.7 980.6
23 15.06 ЮЗ 3 50 км н/о +12.6 +7.0 69 +12 +12 1007.6 980.5
00 16.06 ЮЗ 1 50 км н/о +11.8 +6.2 69 +12 +12 1007.5 980.4
01 16.06 ЮЗ 3 45 км слаб. дождь н/о +10.5 +6.8 78 +9 +9 1007.3 980.0
02 16.06 ЮЗ 2 50 км в посл. час дождь н/о +10.3 +6.4 77 +9 +9 1007.1 979.8
03 16.06 З 2 50 км н/о +8.9 +5.6 80 +8 +8 1007.4 980.0
04 16.06 ЮЗ 2 45 км н/о +8.8 +5.9 82 +7 +7 1007.1 979.6
05 16.06 ЮЗ 3 40 км н/о +9.2 +5.8 79 +7 +7 1006.7 979.3
06 16.06 ЮЗ 3 35 км н/о +10.6 +6.5 76 +9 +9 1006.8 979.5 +8.4 0.0
07 16.06 ЮЗ 3 30 км н/о +12.3 +6.2 66 +11 +11 1007.0 979.9
08 16.06 ЮЗ 3 40 км н/о +13.2 +6.6 64 +12 +12 1007.0 980.0
09 16.06 ЮЗ 3 30 км н/о +13.9 +6.2 60 +13 +13 1007.1 980.2
10 16.06 Ю 4 50 км н/о +14.5 +6.7 59 +14 +14 1007.2 980.3
11 16.06 Ю 3 23 км н/о +15.8 +7.4 57 +15 +15 1007.1 980.3
12 16.06 Ю 3 35 км в посл. час дождь н/о +12.6 +9.0 79 +11 +11 1008.4 981.3 0.2
13 16.06 ЮЗ 3 50 км н/о +13.7 +6.0 60 +13 +13 1008.1 981.2
14 16.06 ЮЗ 4 35 км н/о +16.2 +6.0 51 +16 +16 1007.6 980.9
15 16.06 ЮЗ 4 30 км слаб. ливневой дождь н/о +11.6 +5.4 66 +10 +10 1008.9 981.7
16 16.06 Ю 2 28 км в посл. час дождь н/о +13.4 +9.6 78 +13 +13 1008.4 981.4
17 16.06 Ю 2 7000 м ливневой дождь н/о +11.3 +7.5 77 +10 +10 1008.8 981.5
18 16.06 СВ 1 45 км в посл. час дождь н/о +11.6 +8.4 81 +12 +12 1008.2 981.1 +16.3 3
19 16.06 СЗ 1 35 км н/о +10.8 +9.5 92 +10 +10 1008.1 980.8
20 16.06 З 1 40 км н/о +10.5 +9.0 90 +10 +10 1007.9 980.6
21 16.06 С 1 30 км в посл. час дождь н/о +9.8 +8.8 93 +9 +9 1007.9 980.6
22 16.06 СЗ 1 24 км н/о +8.8 +7.9 94 +8 +8 1007.5 980.1
23 16.06 З 1 40 км н/о +8.1 +7.3 95 +7 +7 1006.7 979.2
00 17.06 СВ 1 30 км слаб. ливневой дождь н/о +8.4 +7.9 97 +8 +8 1006.3 978.8 0.0
01 17.06 СЗ 1 6000 м дождь н/о +8.7 +8.4 98 +8 +8 1005.6 978.2
02 17.06 штиль 0 3600 м сильн. дождь н/о +8.6 +8.3 98 +8 +8 1004.7 977.3
03 17.06 З 1 13 км слаб. морось с дождем н/о +7.9 +7.5 97 +7 +7 1004.2 976.8
04 17.06 С 1 7000 м в посл. час дождь н/о +7.3 +7.0 98 +7 +7 1004.3 976.8
05 17.06 ЮЗ 2 24 км в посл. час дождь н/о +8.8 +8.1 95 +7 +7 1004.2 976.9
06 17.06 ЮЗ 2 17 км слаб. дождь н/о +9.3 +8.4 94 +7 +7 1004.7 977.4 +7.2 7
07 17.06 ЮЗ 2 45 км в посл. час дождь н/о +10.2 +8.8 91 +9 +9 1005.2 978.0
08 17.06 Ю 2 50 км н/о +11.7 +9.1 84 +11 +11 1005.6 978.5
09 17.06 ЮЗ 3 40 км н/о +12.9 +8.5 75 +12 +12 1005.6 978.6
10 17.06 ЮЗ 3 40 км в посл. час дождь н/о +11.7 +8.8 82 +10 +10 1005.7 978.6
11 17.06 Ю 3 35 км в посл. час дождь н/о +13.5 +7.9 69 +13 +13 1005.5 978.6
12 17.06 Ю 3 21 км в посл. час дождь н/о +15.6 +9.8 68 +15 +15 1005.3 978.6 0.0
13 17.06 ЮЗ 4 9000 м ливневой дождь н/о +11.0 +8.5 85 +9 +9 1006.0 978.8
14 17.06 ЮЗ 4 10 км дождь н/о +11.3 +8.7 84 +9 +9 1006.1 979.0
15 17.06 Ю 3 27 км в посл. час дождь н/о +13.6 +10.0 79 +13 +13 1005.6 978.6
16 17.06 ЮЗ 3 27 км н/о +13.2 +8.0 71 +12 +12 1005.3 978.4
17 17.06 ЮЗ 4 40 км н/о +12.5 +8.8 78 +11 +11 1005.5 978.5
18 17.06 ЮЗ 4 45 км в посл. час дождь н/о +11.7 +8.1 79 +10 +10 1006.3 979.2 +16.6 3
19 17.06 ЮЗ 3 50 км в посл. час дождь н/о +10.5 +7.6 82 +8 +8 1007.2 979.9
20 17.06 ЮЗ 2 50 км н/о +10.6 +7.5 81 +10 +10 1007.8 980.5
21 17.06 ЮЗ 3 50 км н/о +9.9 +7.1 83 +8 +8 1007.9 980.6
22 17.06 ЮЗ 1 50 км н/о +9.0 +6.5 84 +8 +8 1008.5 981.1
23 17.06 ЮЗ 2 50 км н/о +8.9 +6.5 85 +7 +7 1008.5 981.1
00 18.06 ЮЗ 2 50 км н/о +9.0 +6.0 81 +7 +7 1008.5 981.1 0.6
01 18.06 З 2 50 км н/о +9.4 +6.0 79 +8 +8 1008.5 981.2
02 18.06 ЮЗ 2 50 км н/о +9.1 +5.8 80 +7 +7 1008.0 980.6
03 18.06 ЮЗ 2 50 км н/о +8.9 +6.0 82 +7 +7 1007.6 980.2
04 18.06 ЮЗ 2 50 км н/о +9.6 +6.4 80 +8 +8 1006.9 979.6
05 18.06 ЮЗ 3 40 км н/о +10.5 +6.6 77 +9 +9 1006.3 979.1
06 18.06 ЮЗ 4 40 км н/о +10.7 +6.3 74 +9 +9 1006.1 978.9 +8.4 0.6
07 18.06 ЮЗ 4 45 км н/о +11.5 +5.5 67 +9 +9 1005.8 978.7
08 18.06 ЮЗ 4 11 км дым н/о +11.0 +6.5 74 +9 +9 1006.4 979.2
09 18.06 ЮЗ 3 35 км слаб. морось с дождем н/о +10.8 +8.2 84 +9 +9 1006.5 979.3
10 18.06 ЮЗ 4 30 км в посл. час дождь н/о +12.9 +8.9 77 +11 +11 1006.5 979.5
11 18.06 ЮЗ 4 8000 м дым н/о +11.9 +8.5 80 +10 +10 1007.1 980.0
12 18.06 ЮЗ 3 17 км н/о +13.8 +9.2 74 +13 +13 1007.2 980.2 0.4
13 18.06 ЮЗ 5 35 км н/о +15.3 +8.6 64 +14 +14 1007.1 980.3
14 18.06 ЮЗ 4 35 км н/о +14.2 +7.7 65 +13 +13 1007.6 980.7
15 18.06 ЮЗ 3 50 км н/о +14.1 +7.9 66 +13 +13 1007.9 981.0
16 18.06 ЮЗ 4 35 км н/о +13.7 +7.8 68 +12 +12 1008.1 981.2
17 18.06 ЮЗ 3 30 км н/о +13.6 +7.6 67 +13 +13 1008.0 981.0
18 18.06 ЮЗ 3 50 км н/о +13.5 +7.8 68 +12 +12 1008.2 981.2 +15.9 0.4
19 18.06 ЮЗ 3 50 км н/о +12.5 +7.9 74 +11 +11 1008.6 981.5
20 18.06 ЮЗ 3 45 км н/о +11.3 +7.6 78 +10 +10 1008.7 981.5
21 18.06 ЮЗ 2 50 км н/о +11.1 +7.3 77 +10 +10 1008.7 981.4
22 18.06 ЮЗ 2 40 км н/о +10.7 +7.4 80 +9 +9 1008.5 981.3
23 18.06 ЮЗ 3 50 км н/о +10.5 +7.7 83 +8 +8 1008.1 980.8
00 19.06 ЮЗ 2 50 км н/о +10.0 +7.4 84 +8 +8 1007.7 980.4
01 19.06 ЮЗ 3 50 км н/о +10.5 +7.1 79 +9 +9 1007.3 980.1
02 19.06 ЮЗ 3 50 км н/о +9.9 +6.9 82 +8 +8 1007.3 980.0
03 19.06 ЮЗ 3 50 км н/о +9.4 +6.8 84 +7 +7 1007.1 979.8
04 19.06 ЮЗ 2 50 км н/о +9.9 +6.8 81 +8 +8 1007.2 979.8
05 19.06 ЮЗ 2 40 км н/о +10.8 +7.1 78 +10 +10 1006.4 979.2
06 19.06 ЮЗ 2 35 км н/о +12.0 +7.5 74 +11 +11 1006.0 979.0 +9.3
07 19.06 ЮЗ 3 45 км н/о +13.4 +8.1 70 +12 +12 1005.6 978.7
08 19.06 ЮЗ 3 50 км н/о +13.2 +7.2 67 +12 +12 1005.4 978.4
09 19.06 ЮЗ 4 40 км н/о +14.7 +6.6 58 +14 +14 1004.9 978.1
10 19.06 ЮЗ 3 35 км н/о +13.8 +6.8 63 +13 +13 1005.1 978.2
11 19.06 Ю 3 35 км н/о +14.6 +6.0 56 +14 +14 1004.8 978.0
12 19.06 ЮЗ 3 50 км н/о +14.3 +6.8 61 +14 +14 1004.7 977.9
13 19.06 ЮЗ 3 40 км н/о +13.2 +9.3 77 +12 +12 1004.9 978.0
14 19.06 ЮЗ 3 35 км н/о +13.6 +9.2 75 +13 +13 1004.6 977.7
15 19.06 Ю 3 35 км н/о +15.1 +9.3 68 +14 +14 1004.2 977.5
17 19.06 ЮЗ 3 40 км н/о +15.5 +6.8 56 +15 +15 1003.6 976.9
18 19.06 ЮЗ 3 40 км н/о +15.0 +7.3 60 +15 +15 1003.6 976.9 +16.6 1
19 19.06 ЮЗ 3 50 км н/о +13.7 +6.1 60 +13 +13 1003.7 976.8
20 19.06 ЮЗ 2 50 км н/о +12.3 +6.3 67 +11 +11 1004.1 977.1

 

Местоположение метеостанции Авмор (Великобритания): широта 57.20 долгота -3.83 высота над уровнем моря 228 м.

В архиве по умолчанию представлена погода на Авморе за последнюю неделю. Архивные данные за месяц целиком и за предыдущие месяцы, начиная с января 2011 года, Вы можете получить, выбрав интересующий диапазон дат из раскрывающегося списка и нажав кнопку "Ввод!".


*Определитесь, кто Вы:
робот инопланетянин человек

Внимание! Время в таблицах - всемирное. Для получения местного времени необходимо прибавить поправку, которая равна 0 ч.

Смотрите также архив погоды в соседних городах и на ближайших метеорологических станциях:

Погода на Кайрнгорме (Великобритания) (15 км)
Погода на Кэрнуэлле (Великобритания) (43 км)
Погода в Кинлоссе (Великобритания) (52 км)
Погода в Абойне (Великобритания) (62 км)
Погода на Станции Tulloch Bridge (Великобритания) (64 км)
Погода в Лоссимуте (Великобритания) (65 км)
Погода в Тейн-Рендже (Великобритания) (69 км)
Погода на Горе Аонах Мор (Великобритания) (81 км)
Погода на Озере Гласкарнок (Великобритания) (85 км)
Погода в Гленогле (Великобритания) (92 км)

Пояснения к столбцам:

Ветер - указаны скорость ветра в м/с - средняя за 10 мин, порывы в срок и между сроками (в фигурных скобках) и направление, откуда дует ветер: С - северный, СВ - северо-восточный, В - восточный, ЮВ - юго-восточный, Ю - южный, ЮЗ - юго-западный, З - западный, СЗ - северо-западный.
Видимость - горизонтальная дальность видимости в метрах или километрах. При видимости от 1 до 10 км при отсутствии осадков обычно наблюдается дымка, при ухудшении видимости до 1 км и менее - туман. В сухую погоду видимость может ухудшаться дымом, пылью или мглою.
Явления - указаны атмосферные явления, наблюдавшиеся в срок или в последний час перед сроком; фигурными скобками обозначены явления, наблюдавшиеся между сроками (за 1-3 часа до срока); квадратными скобками обозначены град или гололедные отложения с указанием их диаметра в мм.
Облачность - указаны через наклонную черту общая и нижняя облачность в баллах и высота нижней границы облаков в метрах; квадратными скобками обозначены формы облаков: Ci - перистые, Cs - перисто-слоистые, Cc - перисто-кучевые, Ac - высококучевые, As - высокослоистые, Sc - слоисто-кучевые, Ns - слоисто-дождевые, Cu - кучевые, Cb - кучево-дождевые. Подробнее классификацию облаков см. в Атласе облаков (PDF).
T - Температура воздуха - температура, измеренная на высоте 2 м над землей.
Td - Температура точки росы - температура, при понижении до которой содержащийся в воздухе водяной пар достигнет насыщения.
f - Относительная влажность воздуха - влажноcть воздуха, измеренная на высоте 2 м над землей.
Te - Эффективная температура - температура, которую ощущает одетый по сезону человек в тени. Характеристика душности погоды. При расчете учитывается влияние влажности воздуха и скорости ветра на теплоощущения человека.
Tes - Эффективная температура на солнце - температура, которую ощущает человек, с поправкой на солнечный нагрев. Характеристика знойности погоды. Зависит от высоты солнца над горизонтом, облачности и скорости ветра. Ночью, в пасмурную погоду, а также при ветре 12 м/с и более поправка равна нулю.
P - Атмосферное давление - приведенное к уровню моря атмосферное давление.
Po - Атмосферное давление - измеренное на уровне метеостанции атмосферное давление.
Tmin - Минимальная температура - минимум температуры воздуха на высоте 2 м над землей.
Tmax - Максимальная температура - максимум температуры воздуха на высоте 2 м над землей.
R - Количество осадков - Количество выпавших осадков за период времени, мм. При наведении курсора мыши на число - период времени, за который выпало указанное количество осадков.
R24 - Количество осадков - Количество выпавших осадков за 24 часа, мм.
S - Снежный покров - Высота снежного покрова, см. При наведении курсора мыши на число - состояние снежного покрова и степень покрытия местности в баллах.